• In Uzbekistan
  • List of Countries
  • For 7 days
  • Water Temperature
  • Weather Map
  • Weather Widgets
  • user-avatar
    Login

    Hourly Weather Knighton

    Today, 13 November, Wednesday

    Time Temperature Precipitation Wind Pressure Humidity
    00:00 0°C° 0 mm 4 mps 722 mmHg 91%
    01:00 +1°C° 0 mm 3 mps 721 mmHg 92%
    02:00 +1°C° 0 mm 3 mps 721 mmHg 92%
    03:00 +1°C° 0 mm 3 mps 721 mmHg 93%
    04:00 +1°C° 0 mm 3 mps 721 mmHg 93%
    05:00 +1°C° 0 mm 3 mps 721 mmHg 92%
    06:00 +1°C° 0 mm 4 mps 721 mmHg 92%
    07:00 +2°C° 0 mm 3 mps 721 mmHg 92%
    08:00 +2°C° 0 mm 3 mps 720 mmHg 91%
    09:00 +3°C° 0 mm 2 mps 720 mmHg 90%
    10:00 +3°C° 0 mm 2 mps 719 mmHg 86%
    11:00 +4°C° 0 mm 2 mps 718 mmHg 82%
    12:00 +4°C° 0 mm 3 mps 718 mmHg 78%
    13:00 +4°C° 0.1 mm 3 mps 716 mmHg 81%
    14:00 +3°C° 0.1 mm 4 mps 715 mmHg 84%
    15:00 +3°C° 0.1 mm 4 mps 714 mmHg 86%
    16:00 +2°C° 0.1 mm 5 mps 713 mmHg 88%
    17:00 +1°C° 0.1 mm 5 mps 712 mmHg 90%
    18:00 +1°C° 0.1 mm 6 mps 711 mmHg 92%
    19:00 +1°C° 1 mm 6 mps 711 mmHg 93%
    20:00 0°C° 1 mm 7 mps 711 mmHg 93%
    21:00 0°C° 1 mm 7 mps 711 mmHg 94%
    22:00 0°C° 0.5 mm 7 mps 711 mmHg 94%
    23:00 +1°C° 0.5 mm 6 mps 712 mmHg 94%

    Tomorrow, 14 November, Thursday

    Time Temperature Precipitation Wind Pressure Humidity
    00:00 +1°C° 0.5 mm 6 mps 712 mmHg 94%
    01:00 +1°C° 0.4 mm 6 mps 712 mmHg 93%
    02:00 0°C° 0.4 mm 7 mps 712 mmHg 92%
    03:00 -1°C° 0.4 mm 8 mps 713 mmHg 91%
    04:00 -1°C° 0.1 mm 8 mps 713 mmHg 92%
    05:00 -1°C° 0.1 mm 7 mps 714 mmHg 92%
    06:00 -1°C° 0.1 mm 7 mps 715 mmHg 92%
    07:00 0°C° 0 mm 7 mps 715 mmHg 91%
    08:00 0°C° 0 mm 8 mps 716 mmHg 90%
    09:00 0°C° 0 mm 8 mps 717 mmHg 90%
    10:00 0°C° 0.6 mm 9 mps 717 mmHg 90%
    11:00 -1°C° 0.6 mm 9 mps 718 mmHg 91%
    12:00 -1°C° 0.6 mm 9 mps 719 mmHg 92%
    13:00 -1°C° 1.1 mm 9 mps 719 mmHg 93%
    14:00 -1°C° 1.1 mm 8 mps 719 mmHg 94%
    15:00 -1°C° 1.1 mm 8 mps 720 mmHg 95%
    16:00 -1°C° 1.1 mm 7 mps 720 mmHg 96%
    17:00 -1°C° 1.1 mm 7 mps 721 mmHg 96%
    18:00 -1°C° 1.1 mm 7 mps 721 mmHg 96%
    19:00 -1°C° 0.7 mm 6 mps 722 mmHg 96%
    20:00 -1°C° 0.7 mm 6 mps 722 mmHg 96%
    21:00 0°C° 0.7 mm 5 mps 723 mmHg 96%
    22:00 +1°C° 0.4 mm 5 mps 723 mmHg 96%
    23:00 +1°C° 0.4 mm 4 mps 723 mmHg 96%

    Day after tomorrow, 15 November, Friday

    Time Temperature Precipitation Wind Pressure Humidity
    00:00 +1°C° 0.4 mm 4 mps 723 mmHg 96%
    01:00 +1°C° 0.5 mm 4 mps 723 mmHg 96%
    02:00 +1°C° 0.5 mm 5 mps 724 mmHg 95%
    03:00 +1°C° 0.5 mm 5 mps 724 mmHg 95%
    04:00 0°C° 0 mm 5 mps 724 mmHg 95%
    05:00 0°C° 0 mm 4 mps 725 mmHg 95%
    06:00 0°C° 0 mm 4 mps 725 mmHg 95%
    07:00 +1°C° 0 mm 4 mps 727 mmHg 93%
    08:00 +1°C° 0 mm 4 mps 727 mmHg 93%
    09:00 +3°C° 0 mm 4 mps 728 mmHg 93%
    10:00 +2°C° 0 mm 5 mps 728 mmHg 90%
    11:00 +3°C° 0 mm 6 mps 728 mmHg 87%
    12:00 +3°C° 0 mm 6 mps 728 mmHg 84%
    13:00 +3°C° 0 mm 6 mps 728 mmHg 85%
    14:00 +3°C° 0 mm 6 mps 727 mmHg 86%
    15:00 +2°C° 0 mm 6 mps 727 mmHg 87%
    16:00 +2°C° 0.1 mm 5 mps 727 mmHg 89%
    17:00 +2°C° 0.1 mm 5 mps 727 mmHg 91%
    18:00 +2°C° 0.1 mm 5 mps 727 mmHg 92%
    19:00 +2°C° 0 mm 5 mps 727 mmHg 92%
    20:00 +2°C° 0 mm 5 mps 727 mmHg 92%
    21:00 +2°C° 0 mm 5 mps 727 mmHg 91%
    22:00 +1°C° 0 mm 5 mps 726 mmHg 92%
    23:00 +1°C° 0 mm 5 mps 726 mmHg 92%

    16 November, Saturday

    Time Temperature Precipitation Wind Pressure Humidity
    00:00 +1°C° 0 mm 5 mps 725 mmHg 92%
    01:00 +1°C° 0 mm 5 mps 725 mmHg 91%
    02:00 +1°C° 0 mm 6 mps 725 mmHg 91%
    03:00 +1°C° 0 mm 6 mps 724 mmHg 90%
    04:00 +1°C° 0.1 mm 6 mps 724 mmHg 90%
    05:00 +1°C° 0.1 mm 6 mps 724 mmHg 91%
    06:00 +2°C° 0.1 mm 5 mps 724 mmHg 91%
    07:00 +2°C° 0.3 mm 5 mps 724 mmHg 92%
    08:00 +3°C° 0.3 mm 4 mps 724 mmHg 92%
    09:00 +3°C° 0.3 mm 3 mps 724 mmHg 93%
    10:00 +3°C° 0.2 mm 3 mps 724 mmHg 92%
    11:00 +4°C° 0.2 mm 3 mps 724 mmHg 92%
    12:00 +4°C° 0.2 mm 3 mps 723 mmHg 91%
    13:00 +4°C° 0.2 mm 3 mps 723 mmHg 92%
    14:00 +5°C° 0.2 mm 2 mps 723 mmHg 93%
    15:00 +5°C° 0.2 mm 2 mps 723 mmHg 93%
    16:00 +5°C° 0.1 mm 2 mps 723 mmHg 94%
    17:00 +5°C° 0.1 mm 1 mps 723 mmHg 94%
    18:00 +5°C° 0.1 mm 1 mps 723 mmHg 95%
    19:00 +5°C° 0.1 mm 1 mps 723 mmHg 95%
    20:00 +5°C° 0.1 mm 1 mps 724 mmHg 95%
    21:00 +5°C° 0.1 mm 1 mps 724 mmHg 95%
    22:00 +5°C° 0 mm 1 mps 724 mmHg 95%
    23:00 +5°C° 0 mm 1 mps 724 mmHg 95%

    17 November, Sunday

    Time Temperature Precipitation Wind Pressure Humidity
    00:00 +5°C° 0 mm 1 mps 724 mmHg 94%
    01:00 +5°C° 0 mm 1 mps 724 mmHg 94%
    02:00 +5°C° 0 mm 1 mps 724 mmHg 94%
    03:00 +5°C° 0 mm 1 mps 724 mmHg 94%
    04:00 +4°C° 0 mm 1 mps 724 mmHg 94%
    05:00 +4°C° 0 mm 1 mps 724 mmHg 94%
    06:00 +4°C° 0 mm 1 mps 724 mmHg 95%
    07:00 +4°C° 0.2 mm 1 mps 725 mmHg 95%
    08:00 +5°C° 0.2 mm 1 mps 725 mmHg 94%
    09:00 +5°C° 0.2 mm 1 mps 725 mmHg 94%
    10:00 +5°C° 0.3 mm 1 mps 725 mmHg 94%
    11:00 +5°C° 0.3 mm 1 mps 726 mmHg 95%
    12:00 +6°C° 0.3 mm 1 mps 726 mmHg 95%
    13:00 +6°C° 0.1 mm 1 mps 726 mmHg 95%
    14:00 +6°C° 0.1 mm 1 mps 726 mmHg 94%
    15:00 +6°C° 0.1 mm 1 mps 726 mmHg 94%
    16:00 +5°C° 0 mm 1 mps 726 mmHg 94%
    17:00 +5°C° 0 mm 1 mps 726 mmHg 95%
    18:00 +5°C° 0 mm 1 mps 727 mmHg 95%
    19:00 +5°C° 0 mm 1 mps 727 mmHg 94%
    20:00 +4°C° 0 mm 1 mps 727 mmHg 94%
    21:00 +4°C° 0 mm 1 mps 727 mmHg 94%
    22:00 +4°C° 0 mm 1 mps 727 mmHg 93%
    23:00 +2°C° 0 mm 0 mps 727 mmHg 93%

    18 November, Monday

    Time Temperature Precipitation Wind Pressure Humidity
    00:00 +2°C° 0 mm 0 mps 727 mmHg 93%
    01:00 +2°C° 0 mm 0 mps 726 mmHg 93%
    02:00 +2°C° 0 mm 0 mps 726 mmHg 93%
    03:00 +2°C° 0 mm 0 mps 726 mmHg 93%
    04:00 +2°C° 0 mm 0 mps 726 mmHg 93%
    05:00 +2°C° 0 mm 0 mps 726 mmHg 93%
    06:00 +3°C° 0 mm 1 mps 726 mmHg 94%
    07:00 +3°C° 0.1 mm 1 mps 726 mmHg 94%
    08:00 +4°C° 0.1 mm 1 mps 726 mmHg 94%
    09:00 +4°C° 0.1 mm 1 mps 726 mmHg 94%
    10:00 +3°C° 0 mm 2 mps 725 mmHg 92%
    11:00 +4°C° 0 mm 2 mps 725 mmHg 89%
    12:00 +4°C° 0 mm 3 mps 725 mmHg 86%
    13:00 +4°C° 0 mm 3 mps 725 mmHg 86%
    14:00 +4°C° 0 mm 3 mps 724 mmHg 85%
    15:00 +4°C° 0 mm 3 mps 724 mmHg 85%
    16:00 +4°C° 0 mm 2 mps 724 mmHg 87%
    17:00 +3°C° 0 mm 2 mps 723 mmHg 90%
    18:00 +3°C° 0 mm 1 mps 723 mmHg 93%
    19:00 +2°C° 0 mm 2 mps 722 mmHg 94%
    20:00 +3°C° 0 mm 2 mps 722 mmHg 96%
    21:00 +2°C° 0 mm 3 mps 722 mmHg 97%
    22:00 +2°C° 0 mm 3 mps 721 mmHg 97%
    23:00 +2°C° 0 mm 3 mps 720 mmHg 97%
    Show more